Location: G�ndlingen
(48.0142°N, 7.6396°E)
Time: 02:31:28
(UTC+00:00)

Terra - Pass Details

Date: 05 July 2020
Orbit: 701 x 703 km, 98.2° (Epoch: 04 August)

Event Time Altitude Azimuth Distance (km) Brightness Sun altitude
Exits shadow 20:31:41 10° 130° (SE) 2,153 3.7 -8.3°
Maximum altitude 20:35:55 35° 66° (ENE) 1,138 2.8 -8.8°
Drops below altitude 10° 20:40:14 10° 2° (N) 2,183 5.1 -9.3°
Sets 20:42:38 0° 354° (N) 3,105 6.2 -9.5°
